Date String (YYYY-MM-DD hh:mm:ss) UTC,Instrument flags,Ambient pressure (hPa),Sample flow (lpm),Bypass flow (lpm),Sample temperature (°C),Ambient temperature (°C),ASC tube jacket temperature (°C),LED temperature (°C),Box temperature (°C),Sample RH (%),Span deviation,Mass concentration (μg/m³),Mass concentration (μg/m³),Mass concentration (μg/m³)
DateTimeUTC,F1_M11,P_M11,Q1_M11,Q2_M11,T1_M11,T2_M11,T3_M11,T4_M11,T5_M11,U1_M11,ZSPAN_M11,X2_M11,X0_M11,X1_M11
2021-10-03 01:00:00,,0831.3,5.00,0.00,29.9,29.1,00.0,38.8,31.8,13.5,0000.0,0004.52,0012.19,0003.82
2021-10-03 01:01:00,,0831.4,5.00,0.00,29.9,29.1,00.0,38.9,31.8,13.6,0000.0,0004.52,0011.47,0003.83
2021-10-03 01:02:00,,0831.4,5.01,0.00,30.0,29.2,00.0,38.9,31.8,13.5,0000.0,0004.51,0011.65,0003.84
2021-10-03 01:03:00,,0831.4,5.01,0.00,30.0,29.2,00.0,38.9,31.8,13.5,0000.0,0004.50,0011.40,0003.85
2021-10-03 01:04:00,,0831.4,4.99,0.00,30.0,27.8,00.0,38.9,31.6,13.6,0000.0,0004.51,0011.23,0003.86
2021-10-03 01:05:00,,0831.3,5.00,0.00,29.8,26.3,00.0,38.9,31.2,13.5,0000.0,0004.52,0011.25,0003.86
2021-10-03 01:06:00,,0831.3,5.00,0.00,29.7,26.3,00.0,38.9,31.1,13.4,0000.0,0004.46,0011.36,0003.85
2021-10-03 01:07:00,,0831.4,5.00,0.00,29.6,26.8,00.0,38.8,31.1,13.6,0000.0,0004.49,0010.37,0003.84
2021-10-03 01:08:00,,0831.3,5.01,0.00,29.6,27.2,00.0,38.8,31.2,13.7,0000.0,0004.47,0010.24,0003.83
2021-10-03 01:09:00,,0831.3,5.01,0.00,29.6,27.5,00.0,38.8,31.3,13.8,0000.0,0004.46,0009.88,0003.83
2021-10-03 01:10:00,,0831.3,5.00,0.00,29.6,27.8,00.0,38.8,31.3,13.9,0000.0,0004.43,0009.34,0003.83
2021-10-03 01:11:00,,0831.3,5.01,0.00,29.6,28.1,00.0,38.7,31.4,13.8,0000.0,0004.38,0009.16,0003.81
2021-10-03 01:12:00,,0831.3,5.00,0.00,29.7,28.3,00.0,38.7,31.4,13.8,0000.0,0004.38,0009.22,0003.78
2021-10-03 01:13:00,,0831.3,5.00,0.00,29.7,28.4,00.0,38.7,31.5,13.8,0000.0,0004.38,0009.25,0003.77
2021-10-03 01:14:00,,0831.3,5.01,0.00,29.7,28.5,00.0,38.7,31.5,13.7,0000.0,0004.37,0009.35,0003.77
2021-10-03 01:15:00,,0831.4,5.01,0.00,29.7,28.6,00.0,38.8,31.5,13.6,0000.0,0004.38,0009.25,0003.77
2021-10-03 01:16:00,,0831.4,4.99,0.00,29.8,28.7,00.0,38.8,31.6,13.3,0000.0,0004.37,0009.04,0003.75
2021-10-03 01:17:00,,0831.4,5.00,0.00,29.8,28.8,00.0,38.8,31.6,13.2,0000.0,0004.36,0009.71,0003.74
2021-10-03 01:18:00,,0831.4,5.01,0.00,29.8,28.9,00.0,38.8,31.7,13.1,0000.0,0004.29,0009.36,0003.74
2021-10-03 01:19:00,,0831.4,5.00,0.00,29.9,28.9,00.0,38.8,31.7,13.2,0000.0,0004.30,0009.69,0003.75
2021-10-03 01:20:00,,0831.5,5.01,0.00,29.9,29.0,00.0,38.9,31.7,13.0,0000.0,0004.32,0009.82,0003.76
2021-10-03 01:21:00,,0831.5,5.00,0.00,29.9,29.1,00.0,38.9,31.7,13.0,0000.0,0004.34,0010.41,0003.75
2021-10-03 01:22:00,,0831.4,5.00,0.00,30.0,29.1,00.0,38.9,31.8,12.9,0000.0,0004.38,0010.83,0003.75
2021-10-03 01:23:00,,0831.4,5.00,0.00,30.0,29.2,00.0,38.9,31.8,12.9,0000.0,0004.37,0010.61,0003.75
2021-10-03 01:24:00,,0831.4,4.99,0.00,30.0,29.2,00.0,38.9,31.9,12.9,0000.0,0004.34,0010.32,0003.74
2021-10-03 01:25:00,,0831.4,5.01,0.00,30.0,28.6,00.0,39.0,31.7,12.9,0000.0,0004.31,0010.14,0003.72
2021-10-03 01:26:00,,0831.4,4.99,0.00,29.9,26.6,00.0,38.9,31.2,13.2,0000.0,0004.27,0010.05,0003.72
2021-10-03 01:27:00,,0831.4,5.00,0.00,29.8,26.2,00.0,38.9,31.1,13.6,0000.0,0004.26,0010.31,0003.72
2021-10-03 01:28:00,,0831.4,4.99,0.00,29.7,26.5,00.0,38.9,31.1,13.7,0000.0,0004.25,0009.66,0003.72
2021-10-03 01:29:00,,0831.4,5.00,0.00,29.6,27.0,00.0,38.8,31.2,13.8,0000.0,0004.28,0010.21,0003.72
2021-10-03 01:30:00,,0831.4,4.99,0.00,29.6,27.3,00.0,38.8,31.2,13.8,0000.0,0004.31,0010.74,0003.71
2021-10-03 01:31:00,,0831.4,5.00,0.00,29.6,27.7,00.0,38.8,31.3,13.7,0000.0,0004.28,0010.26,0003.69
2021-10-03 01:32:00,,0831.5,5.00,0.00,29.6,27.9,00.0,38.8,31.4,13.4,0000.0,0004.28,0010.19,0003.68
2021-10-03 01:33:00,,0831.5,4.99,0.00,29.6,28.2,00.0,38.8,31.4,13.3,0000.0,0004.28,0010.14,0003.68
2021-10-03 01:34:00,,0831.5,5.01,0.00,29.7,28.3,00.0,38.8,31.5,13.5,0002.3,0004.28,0010.30,0003.68
2021-10-03 01:35:00,,0831.5,5.00,0.00,29.7,28.5,00.0,38.8,31.5,13.5,0003.0,0004.32,0011.27,0003.68
2021-10-03 01:36:00,,0831.5,5.00,0.00,29.7,28.6,00.0,38.8,31.5,13.7,0003.0,0004.32,0011.26,0003.69
2021-10-03 01:37:00,,0831.5,5.00,0.00,29.8,28.7,00.0,38.8,31.6,13.9,0001.0,0004.32,0012.10,0003.68
2021-10-03 01:38:00,,0831.5,4.99,0.00,29.8,28.8,00.0,38.8,31.6,14.1,0000.8,0004.32,0012.52,0003.68
2021-10-03 01:39:00,,0831.5,5.01,0.00,29.8,28.8,00.0,38.8,31.6,14.5,0000.0,0004.34,0012.05,0003.69
2021-10-03 01:40:00,,0831.5,4.99,0.00,29.8,28.9,00.0,38.8,31.7,14.8,0000.0,0004.37,0011.61,0003.70
2021-10-03 01:41:00,,0831.5,5.00,0.00,29.9,29.0,00.0,38.8,31.7,15.0,0000.0,0004.38,0011.16,0003.73
2021-10-03 01:42:00,,0831.5,5.00,0.00,29.9,29.0,00.0,38.9,31.7,15.1,0000.0,0004.40,0011.15,0003.75
2021-10-03 01:43:00,,0831.6,5.00,0.00,29.9,29.0,00.0,38.9,31.7,15.2,0000.0,0004.38,0011.46,0003.77
2021-10-03 01:44:00,,0831.5,5.00,0.00,29.9,29.1,00.0,38.9,31.7,15.2,0000.0,0004.40,0011.31,0003.79
2021-10-03 01:45:00,,0831.5,5.00,0.00,30.0,29.1,00.0,38.9,31.8,15.3,0000.0,0004.38,0010.99,0003.80
2021-10-03 01:46:00,,0831.6,4.99,0.00,30.0,29.1,00.0,38.9,31.8,15.2,0000.0,0004.33,0010.26,0003.81
2021-10-03 01:47:00,,0831.6,4.99,0.00,30.0,29.2,00.0,39.0,31.9,15.2,0000.0,0004.34,0010.53,0003.83
2021-10-03 01:48:00,,0831.6,5.01,0.00,30.1,29.2,00.0,39.0,31.9,15.3,0000.0,0004.38,0010.15,0003.84
2021-10-03 01:49:00,,0831.6,4.99,0.00,30.1,29.2,00.0,39.0,31.9,15.2,0000.0,0004.40,0009.78,0003.85
2021-10-03 01:50:00,,0831.6,5.00,0.00,30.1,29.3,00.0,39.0,31.9,15.1,0000.0,0004.41,0010.01,0003.86
2021-10-03 01:51:00,,0831.7,5.01,0.00,30.1,28.8,00.0,39.0,31.8,15.1,0000.0,0004.38,0009.93,0003.85
2021-10-03 01:52:00,,0831.6,4.99,0.00,30.0,26.8,00.0,39.0,31.3,15.0,0000.0,0004.34,0009.73,0003.83
2021-10-03 01:53:00,,0831.6,5.00,0.00,29.8,26.2,00.0,39.0,31.1,15.3,0000.0,0004.32,0009.72,0003.82
2021-10-03 01:54:00,,0831.6,5.00,0.00,29.7,26.5,00.0,39.0,31.1,15.4,0000.0,0004.36,0010.33,0003.81
2021-10-03 01:55:00,,0831.6,5.00,0.00,29.7,26.9,00.0,38.9,31.2,15.5,0000.0,0004.34,0010.91,0003.80
2021-10-03 01:56:00,,0831.6,5.01,0.00,29.7,27.3,00.0,38.9,31.2,15.4,0000.0,0004.35,0010.94,0003.80
2021-10-03 01:57:00,,0831.7,5.00,0.00,29.7,27.7,00.0,38.8,31.3,15.6,0000.0,0004.39,0011.20,0003.79
2021-10-03 01:58:00,,0831.7,5.00,0.00,29.7,27.9,00.0,38.8,31.4,15.7,0000.0,0004.40,0011.40,0003.78
2021-10-03 01:59:00,,0831.7,5.00,0.00,29.7,28.1,00.0,38.8,31.4,15.8,0000.0,0004.39,0011.61,0003.77
